User: anonymous
Location: Mentone
(34.5413°N, 85.5351°W)
Time: 11:14:24
(UTC-05:00)
Language:

A-11 Canister half - Orbit

View from above orbital plane
View from above orbital plane
View from above satellite
View from above satellite

Ground track
Ground track

The orbit data is extracted from the following two-line orbital elements,

1 00053U 60009E   14264.98547522 -.00000085  00000-0  00000+0 0  5755
2 00053 047.2750 240.5815 0099324 008.6833 028.0516 12.17147638413342
Epoch (UTC): 21 September 2014 23:39:05
Eccentricity: 0.0099324
inclination: 47.2750°
perigee height: 1525 km
apogee height: 1684 km
right ascension of ascending node: 240.5815°
argument of perigee: 8.6833°
revolutions per day: 12.17147638
mean anomaly at epoch: 28.0516°
orbit number at epoch: 41334

The dashed part of the orbit path shows where the satellite is in the earth's shadow,  

DLR